Regional Weather Roundup
Issued by NWS

Home | Current Version | Previous Version | Text Only | Print | Product List | Glossary Off
Versions: 1 2 3 4 5 6 7 8 9 10 11 12 13 14 15 16 17 18 19 20 21 22 23 24 25 26 27 28 29 30 31 32 33 34 35 36 37 38 39 40 41 42 43 44 45 46 47 48 49 50

000
ASUS43 KMKX 072211
RWRWI

WISCONSIN REGIONAL WEATHER ROUNDUP
NATIONAL WEATHER SERVICE MILWAUKEE/SULLIVAN WI
400 PM CST WED DEC 07 2016

NOTE: "FAIR" INDICATES FEW OR NO CLOUDS BELOW 12,000 FEET WITH NO
SIGNIFICANT WEATHER AND/OR OBSTRUCTIONS TO VISIBILITY.

WIZ001-002-006>008-014>016-023>028-072300-
NORTHWEST WISCONSIN

CITY           SKY/WX    TMP DP  RH WIND       PRES   REMARKS
SUPERIOR ARPT  FLURRIES  21  11  65 W20       29.91R WCI   6
ASHLAND        LGT SNOW  19  15  84 SW13G23   29.87R VSB 3/4 WCI   6
HAYWARD        CLOUDY    19   9  65 SW9G17    29.91R WCI   8
SIREN          FLURRIES  19  10  67 W16G24    29.97R WCI   4
CUMBERLAND     CLOUDY    19  10  68 W15G28    29.95R WCI   5
RICE LAKE      CLOUDY    20  11  67 W14G24    29.98R WCI   7
CHETEK         MOCLDY    20  11  68 W10G22    29.98R WCI   8
LADYSMITH      FLURRIES  20  12  71 W16G22    29.94R WCI   6
EAU CLAIRE     CLOUDY    20  12  71 W17G23    30.01R WCI   5
MENOMONIE      CLOUDY    21  12  68 W18G24    30.03R WCI   6
NEW RICHMOND   PTCLDY    19   9  64 W22       30.02R WCI   2
OSCEOLA        MOCLDY    20  10  66 W18G25    30.06R WCI   4
$$

WIZ003>005-009-010-017-018-072300-
NORTH CENTRAL WISCONSIN

CITY           SKY/WX    TMP DP  RH WIND       PRES   REMARKS
MANITOWISH WTR FLURRIES  17  12  81 W10       29.81R WCI   5
ARBOR VITAE    FLURRIES  19  13  77 W14G24    29.82R WCI   6
WOODRUFF       FLURRIES  19  13  77 W14G24    29.82R WCI   6
RHINELANDER    LGT SNOW  20  14  77 W16G23    29.83R WCI   6
EAGLE RIVER    FLURRIES  19  11  72 W16G23    29.80R WCI   4
LAND O LAKES   FLURRIES  19  12  76 W12G17    29.80S WCI   6
PHILLIPS       FLURRIES  18  12  77 W10G18    29.86R WCI   6
TOMAHAWK       FLURRIES  19  13  78 SW9       29.87R WCI   7
MEDFORD        FLURRIES  18  11  75 W14G22    29.91R WCI   4
MERRILL        FLURRIES  19  14  79 W15G23    29.90R WCI   5
$$

WIZ029-030-035-036-043>047-072300-
CENTRAL WISCONSIN

CITY           SKY/WX    TMP DP  RH WIND       PRES   REMARKS
WAUSAU         FLURRIES  19  12  74 W22G30    29.92R WCI   2
MOSINEE        CLOUDY    19  12  73 W18G26    29.94R WCI   4
MARSHFIELD     CLOUDY    20  11  68 W16G28    29.95R WCI   6
STEVENS POINT  CLOUDY    20  11  69 W12G22    29.96R WCI   8
WAUPACA        CLOUDY    25  14  63 SW16G23   29.97R WCI  12
WAUTOMA        CLOUDY    22  14  71 W17G24    29.99R WCI   8
WISC RAPIDS    CLOUDY    21  13  71 W14G25    29.99R WCI   8
CAMP DOUGLAS   CLOUDY    21  12  68 W13       30.03R WCI   9
$$

WIZ011>013-019>022-031-037>040-048>050-072300-
NORTHEAST WISCONSIN

CITY           SKY/WX    TMP DP  RH WIND       PRES   REMARKS
ANTIGO         FLURRIES  17  12  79 W21G26    29.87R WCI   1
SHAWANO        MOCLDY    25  14  63 W13G20    29.93R WCI  14
OCONTO         MOCLDY    24  13  61 W20G25    29.91R WCI  10
STURGEON BAY   MOCLDY    26  15  63 W16G26    29.89S WCI  14
GREEN BAY      MOCLDY    27  16  63 W16G24    29.93R WCI  15
MANITOWOC      MOCLDY    24  16  71 SW13G22   29.96R WCI  12
APPLETON       MOCLDY    23  12  63 W22       29.94R WCI   8
CLINTONVILLE   CLOUDY    25  14  63 W13G21    29.94R WCI  13
OSHKOSH        MOCLDY    22  13  68 W9G18     29.97R WCI  12
$$

WIZ032>034-041-042-053>061-072300-
SOUTHWEST WISCONSIN

CITY           SKY/WX    TMP DP  RH WIND       PRES   REMARKS
LA CROSSE      CLOUDY    22  12  65 W16       30.10R WCI   8
SPARTA         FLURRIES  21  13  72 W10G20    30.06R WCI  10
VIROQUA        CLOUDY    18  13  80 W14G23    30.05R WCI   4
BOSCOBEL       CLOUDY    22  12  65 SW9       30.13R WCI  12
PRAIRIE DU CHI FLURRIES  21  12  68 W9G18     30.15R WCI  11
PLATTEVILLE    CLOUDY    20  15  80 W13G25    30.12R WCI   8
$$

WIZ056-057-062-063-064-067-068-072300-
SOUTH CENTRAL WISCONSIN

CITY           SKY/WX    TMP DP  RH WIND       PRES   REMARKS
REEDSBURG      CLOUDY    20  12  71 W16G23    30.05R WCI   5
BARABOO/DELLS  MOCLDY    20  12  69 W12G18    30.04R WCI   8
LONE ROCK      CLOUDY    21  12  68 W14G20    30.10R WCI   8
MINERAL POINT  FLURRIES  21  16  79 W15       30.09R WCI   8
MADISON        MOCLDY    21  14  74 W9        30.06R WCI  11
MIDDLETON      CLOUDY    22  15  73 SW8       30.06R WCI  13
WATERTOWN      MOCLDY    21  15  76 SW14G20   30.04R WCI   8
MONROE         CLOUDY    21  14  73 W21G30    30.08R WCI   6
JANESVILLE     MOCLDY    21  16  79 W14       30.08R WCI   8
$$

WIZ051-052-058>065-066-070>072-072300-
SOUTHEAST WISCONSIN

CITY           SKY/WX    TMP DP  RH WIND       PRES   REMARKS
MILWAUKEE      MOCLDY    26  15  63 W14G24    30.03R WCI  14
WAUKESHA       PTCLDY    21  14  73 SW14      30.03R WCI   8
MILWAUKEE/TIMM CLEAR     25  12  58 W16G23    30.03R WCI  12
RACINE         PTCLDY    25  15  66 W9        30.06R WCI  15
BURLINGTON     CLOUDY    23  16  74 W9G21     30.06R WCI  13
KENOSHA        CLOUDY    25  17  72 W21G30    30.05R WCI  11
FOND DU LAC    MOCLDY    22  12  65 W8        30.00R WCI  12
SHEBOYGAN      MOCLDY    23  14  68 W16       29.98R WCI  10
WEST BEND      PTCLDY    23  16  74 W10G21    30.00R WCI  12
JUNEAU         PTCLDY    19  13  76 SW18      30.03R WCI   4
$$

LSZ147-162-072300-
LAKE SUPERIOR

STATION/POSITION TIME  TEMP    WIND        PRES    WAVE
                       AIR SEA DIR/SP/G            HT/PER
                 (UTC) (F)     (DEG/KT/KT) (MB)    (FT/S)
DEVILS ISLAND    2200   26     250/ 32/ 43 1010.3R
PORT WING        2140   22     220/ 15/ 23 1011.9R
SAXON HARBOR     2140   22     230/  7/ 21 1011.2R
$$

LMZ867-665-643>646-072300-
LAKE MICHIGAN

STATION/POSITION TIME  TEMP    WIND        PRES    WAVE
                       AIR SEA DIR/SP/G            HT/PER
                 (UTC) (F)     (DEG/KT/KT) (MB)    (FT/S)
CHAMBERS ISLAND  2140   26     230/ 12/ 22 1011.5R
NORTHPORT PIER   2147   27     270/  8/ 19 1011.5R
SISTER BAY       2138   29     290/ 24/ 28   N/A
ALGOMA LAKESHORE 2151          270/ 15/ 24   N/A
KEWAUNEE LAKESHO 2148   26     270/ 13/ 20 1012.9R
SHEBOYGAN LAKESH 2200   24     250/ 16/ 22 1016.2R
PORT WASHINGTON  2130   26     270/  8/ 18 1016.9R
MILWAUKEE LAKESH 2150   25     260/ 16/ 20   N/A
KENOSHA   LAKESH 2200   27     250/ 12/ 20 1017.9
$$

TC  - TEMPERATURE IN CELSIUS
VSB - VISIBILITY IN STATUTE MILES
WCI - WIND CHILL INDEX
HX  - HEAT INDEX





USA.gov is the U.S. government's official web portal to all federal, state and local government web resources and services.